Regional Weather Roundup
Issued by NWS

Home | Current Version | Previous Version | Graphics & Text | Print | Product List | Glossary On
Versions: 1 2 3 4 5 6 7 8 9 10 11 12 13 14 15 16 17 18 19 20 21 22 23 24 25 26 27 28 29 30 31 32 33 34 35 36 37 38 39 40 41 42 43 44 45 46 47 48 49 50
000
ASUS43 KFSD 262202
RWRSD

WEATHER ROUNDUP FOR SOUTH DAKOTA
NATIONAL WEATHER SERVICE SIOUX FALLS SD
500 PM CDT WED APR 26 2017

NOTE: "FAIR" INDICATES FEW OR NO CLOUDS BELOW 12,000 FEET WITH NO
SIGNIFICANT WEATHER AND/OR OBSTRUCTIONS TO VISIBILITY.


SDZ001>005-009-010-012>017-262300-
NORTHWEST AND NORTH CENTRAL SOUTH DAKOTA

CITY           SKY/WX    TMP DP  RH WIND       PRES   REMARKS
BUFFALO          N/A     47  27  45 VRB3      29.68F
FAITH            N/A     49  27  42 N14       29.72F
MOBRIDGE       PTSUNNY   48  26  42 N14G22    29.72F
$$

SDZ012>016-024>037-041>051-057-063-072>074-262300-
SOUTHWEST AND SOUTH CENTRAL SOUTH DAKOTA

CITY           SKY/WX    TMP DP  RH WIND       PRES   REMARKS
RAPID CTY ARPT CLOUDY    38  28  67 N9        29.75F
PIERRE         SUNNY     48  27  44 N12G21    29.72F
CUSTER         CLOUDY    35  32  88 NE6       29.68S
ELLSWORTH AFB  CLOUDY    38  29  70 N9        29.75F
PHILIP         PTSUNNY   45  31  58 NW17      29.75F
PINE RIDGE     MOSUNNY   46  32  58 N10       29.72F
SPEARFISH      FAIR      34  28  80 CALM      29.74F
WINNER         CLOUDY    46  30  53 NW16      29.72F
$$

SDZ004>011-016>023-039-040-262300-
NORTHEAST SOUTH DAKOTA

CITY           SKY/WX    TMP DP  RH WIND       PRES   REMARKS
ABERDEEN       LGT SNOW  31  25  78 N17       29.75S WCI  19
WATERTOWN      CLOUDY    29  25  85 N21       29.66F WCI  16
BROOKINGS      CLOUDY    32  26  78 N17       29.66S WCI  21
SISSETON         N/A     30  27  88 N21       29.68F WCI  17
$$

SDZ017-020-022-023-036>040-048>070-262300-
SOUTHEAST SOUTH DAKOTA

CITY           SKY/WX    TMP DP  RH WIND       PRES   REMARKS
SIOUX FALLS    CLOUDY    37  30  75 N18       29.67S
HURON          CLOUDY    35  28  75 N18       29.73F WCI  24
CHAMBERLAIN    CLOUDY    46  31  56 NW15      29.73S
MITCHELL       CLOUDY    38  28  67 NW16      29.72F
YANKTON        CLOUDY   N/A N/A N/A NW21G31   29.69S
$$

ABBREVIATIONS USED IN REMARKS
   TC - TEMPERATURE IN CELSIUS
  WCI - WIND CHILL INDEX
   HX - HEAT INDEX
  VSB - VISIBILITY




USA.gov is the U.S. government's official web portal to all federal, state and local government web resources and services.